Time,TemperatureF,DewpointF,PressureIn,WindDirection,WindDirectionDegrees,WindSpeedMPH,WindSpeedGustMPH,Humidity,HourlyPrecipIn,Conditions,Clouds,dailyrainin,SoftwareType,DateUTC
2013-04-10 00:00:00,57.2,45.1,29.88,East,82,0.0,0.0,64,0.00,,,0.00,meteohub,2013-04-10 04:00:00,
2013-04-10 00:05:00,57.2,45.1,29.89,East,82,0.0,0.0,64,0.00,,,0.00,meteohub,2013-04-10 04:05:00,
2013-04-10 00:10:00,57.2,45.1,29.88,East,82,0.0,0.0,64,0.00,,,0.00,meteohub,2013-04-10 04:10:00,
2013-04-10 00:15:00,57.4,45.3,29.88,East,82,0.0,0.0,64,0.00,,,0.00,meteohub,2013-04-10 04:15:00,
2013-04-10 00:20:00,57.7,44.8,29.88,East,82,0.0,0.0,62,0.00,,,0.00,meteohub,2013-04-10 04:20:00,
2013-04-10 00:25:00,58.3,45.3,29.88,East,82,0.0,0.0,62,0.00,,,0.00,meteohub,2013-04-10 04:25:00,
2013-04-10 00:30:00,58.5,45.5,29.88,East,82,0.0,0.0,62,0.00,,,0.00,meteohub,2013-04-10 04:30:00,
2013-04-10 00:35:00,58.8,45.3,29.87,East,82,0.0,0.0,61,0.00,,,0.00,meteohub,2013-04-10 04:35:00,
2013-04-10 00:40:00,59.2,45.7,29.87,East,82,0.0,0.0,61,0.00,,,0.00,meteohub,2013-04-10 04:40:00,
2013-04-10 00:45:00,59.4,45.5,29.86,East,82,0.0,0.0,60,0.00,,,0.00,meteohub,2013-04-10 04:45:00,
2013-04-10 00:50:00,59.5,44.8,29.86,East,82,0.0,0.0,58,0.00,,,0.00,meteohub,2013-04-10 04:50:00,
2013-04-10 00:55:00,59.5,45.1,29.86,East,82,0.0,0.0,59,0.00,,,0.00,meteohub,2013-04-10 04:55:00,
2013-04-10 01:00:00,60.1,45.3,29.85,East,82,0.0,0.0,58,0.00,,,0.00,meteohub,2013-04-10 05:00:00,
2013-04-10 01:05:00,60.3,44.4,29.85,ENE,76,0.0,0.0,56,0.00,,,0.00,meteohub,2013-04-10 05:05:00,
2013-04-10 01:11:00,60.6,44.4,29.85,NNE,16,0.0,1.0,55,0.00,,,0.00,meteohub,2013-04-10 05:11:00,
2013-04-10 01:16:00,60.8,45.0,29.85,ENE,75,0.0,1.0,56,0.00,,,0.00,meteohub,2013-04-10 05:16:00,
2013-04-10 01:21:00,60.6,44.8,29.85,ENE,75,0.0,1.0,56,0.00,,,0.00,meteohub,2013-04-10 05:21:00,
2013-04-10 01:27:00,60.4,45.1,29.84,ENE,75,0.0,1.0,57,0.00,,,0.00,meteohub,2013-04-10 05:27:00,
2013-04-10 01:32:00,60.3,45.9,29.85,ENE,75,0.0,0.0,59,0.00,,,0.00,meteohub,2013-04-10 05:32:00,
2013-04-10 01:37:00,60.3,46.4,29.85,ENE,75,0.0,0.0,60,0.00,,,0.00,meteohub,2013-04-10 05:37:00,
2013-04-10 01:42:00,60.3,45.9,29.85,ENE,75,0.0,0.0,59,0.00,,,0.00,meteohub,2013-04-10 05:42:00,
2013-04-10 01:47:00,60.1,45.7,29.84,ENE,75,0.0,0.0,59,0.00,,,0.00,meteohub,2013-04-10 05:47:00,
2013-04-10 01:52:00,60.1,45.7,29.84,ENE,75,0.0,1.0,59,0.00,,,0.00,meteohub,2013-04-10 05:52:00,
2013-04-10 01:57:00,60.3,45.5,29.83,ENE,75,0.0,1.0,58,0.00,,,0.00,meteohub,2013-04-10 05:57:00,
2013-04-10 02:02:00,60.1,45.3,29.83,ENE,75,0.0,1.0,58,0.00,,,0.00,meteohub,2013-04-10 06:02:00,
2013-04-10 02:07:00,60.1,45.7,29.83,WSW,252,0.0,1.0,59,0.00,,,0.00,meteohub,2013-04-10 06:07:00,
2013-04-10 02:12:00,59.9,45.1,29.83,ESE,112,0.0,2.0,58,0.00,,,0.00,meteohub,2013-04-10 06:12:00,
2013-04-10 02:17:00,59.5,44.8,29.82,ENE,78,1.0,3.0,58,0.00,,,0.00,meteohub,2013-04-10 06:17:00,
2013-04-10 02:22:00,59.2,44.8,29.82,SSW,204,1.0,5.0,59,0.00,,,0.00,meteohub,2013-04-10 06:22:00,
2013-04-10 02:27:00,58.3,45.0,29.81,ENE,77,0.0,5.0,61,0.00,,,0.00,meteohub,2013-04-10 06:27:00,
2013-04-10 02:32:00,57.4,45.0,29.81,East,85,0.0,3.0,63,0.00,,,0.00,meteohub,2013-04-10 06:32:00,
2013-04-10 02:37:00,56.5,44.8,29.81,East,89,0.0,3.0,65,0.00,,,0.00,meteohub,2013-04-10 06:37:00,
2013-04-10 02:42:00,55.8,44.6,29.81,ENE,76,0.0,4.0,66,0.00,,,0.00,meteohub,2013-04-10 06:42:00,
2013-04-10 02:47:00,55.4,45.0,29.81,East,84,0.0,4.0,68,0.00,,,0.00,meteohub,2013-04-10 06:47:00,
2013-04-10 02:52:00,54.9,45.0,29.80,ENE,73,0.0,4.0,69,0.00,,,0.00,meteohub,2013-04-10 06:52:00,
2013-04-10 02:57:00,54.3,44.8,29.80,East,91,0.0,1.0,70,0.00,,,0.00,meteohub,2013-04-10 06:57:00,
2013-04-10 03:02:00,54.1,45.0,29.81,SSW,201,0.0,1.0,71,0.00,,,0.00,meteohub,2013-04-10 07:02:00,
2013-04-10 03:07:00,54.0,45.1,29.81,SSW,201,0.0,1.0,72,0.00,,,0.00,meteohub,2013-04-10 07:07:00,
2013-04-10 03:12:00,54.0,45.5,29.86,WNW,302,1.0,1.0,73,0.00,,,0.00,meteohub,2013-04-10 07:12:00,
2013-04-10 03:17:00,54.3,45.9,29.85,SSE,150,0.0,2.0,73,0.00,,,0.00,meteohub,2013-04-10 07:17:00,
2013-04-10 03:22:00,55.2,46.4,29.86,SW,236,0.0,3.0,72,0.00,,,0.00,meteohub,2013-04-10 07:22:00,
2013-04-10 03:28:00,56.1,46.4,29.85,NNE,28,0.0,3.0,70,0.00,,,0.00,meteohub,2013-04-10 07:28:00,
2013-04-10 03:33:00,57.6,46.8,29.84,NNW,331,0.0,3.0,67,0.00,,,0.00,meteohub,2013-04-10 07:33:00,
2013-04-10 03:38:00,58.3,46.6,29.85,West,276,0.0,0.0,65,0.00,,,0.00,meteohub,2013-04-10 07:38:00,
2013-04-10 03:43:00,58.6,46.6,29.84,SE,129,1.0,0.0,64,0.00,,,0.00,meteohub,2013-04-10 07:43:00,
2013-04-10 03:48:00,59.4,46.4,29.84,SSW,201,0.0,2.0,62,0.00,,,0.00,meteohub,2013-04-10 07:48:00,
2013-04-10 03:53:00,59.7,46.2,29.85,NNW,335,0.0,2.0,61,0.00,,,0.00,meteohub,2013-04-10 07:53:00,
2013-04-10 03:58:00,60.1,46.9,29.85,NE,49,0.0,3.0,62,0.00,,,0.00,meteohub,2013-04-10 07:58:00,
2013-04-10 04:03:00,59.9,47.7,29.85,East,94,0.0,5.0,64,0.00,,,0.00,meteohub,2013-04-10 08:03:00,
2013-04-10 04:08:00,59.5,47.8,29.85,ENE,73,0.0,7.0,65,0.00,,,0.00,meteohub,2013-04-10 08:08:00,
2013-04-10 04:13:00,59.0,48.0,29.86,East,91,1.0,7.0,67,0.00,,,0.00,meteohub,2013-04-10 08:13:00,
2013-04-10 04:18:00,58.5,48.4,29.85,East,91,1.0,7.0,69,0.00,,,0.00,meteohub,2013-04-10 08:18:00,
2013-04-10 04:23:00,57.9,48.2,29.86,East,92,0.0,5.0,70,0.00,,,0.00,meteohub,2013-04-10 08:23:00,
2013-04-10 04:28:00,57.6,48.2,29.85,East,91,0.0,5.0,71,0.00,,,0.00,meteohub,2013-04-10 08:28:00,
2013-04-10 04:33:00,57.4,48.4,29.85,ENE,77,0.0,4.0,72,0.00,,,0.00,meteohub,2013-04-10 08:33:00,
2013-04-10 04:38:00,57.0,48.4,29.85,East,98,0.0,2.0,73,0.00,,,0.00,meteohub,2013-04-10 08:38:00,
2013-04-10 04:43:00,56.8,48.2,29.85,East,99,0.0,2.0,73,0.00,,,0.00,meteohub,2013-04-10 08:43:00,
2013-04-10 04:48:00,56.8,48.2,29.85,East,82,0.0,2.0,73,0.00,,,0.00,meteohub,2013-04-10 08:48:00,
2013-04-10 04:53:00,56.7,48.4,29.85,East,82,0.0,2.0,74,0.00,,,0.00,meteohub,2013-04-10 08:53:00,
2013-04-10 04:58:00,56.5,48.4,29.86,East,82,0.0,2.0,74,0.00,,,0.00,meteohub,2013-04-10 08:58:00,
2013-04-10 05:03:00,56.3,48.6,29.86,East,82,0.0,2.0,75,0.00,,,0.00,meteohub,2013-04-10 09:03:00,
2013-04-10 05:08:00,56.1,48.4,29.86,ESE,105,0.0,0.0,75,0.00,,,0.00,meteohub,2013-04-10 09:08:00,
2013-04-10 05:13:00,56.1,48.4,29.86,SW,221,0.0,0.0,75,0.00,,,0.00,meteohub,2013-04-10 09:13:00,
2013-04-10 05:18:00,55.9,48.6,29.86,SW,221,0.0,0.0,76,0.00,,,0.00,meteohub,2013-04-10 09:18:00,
2013-04-10 05:23:00,55.8,48.4,29.86,SW,221,0.0,0.0,76,0.00,,,0.00,meteohub,2013-04-10 09:23:00,
2013-04-10 05:28:00,55.6,48.6,29.86,SW,221,0.0,0.0,77,0.00,,,0.00,meteohub,2013-04-10 09:28:00,
2013-04-10 05:33:00,55.2,48.2,29.86,SW,221,0.0,0.0,77,0.00,,,0.00,meteohub,2013-04-10 09:33:00,
2013-04-10 05:38:00,55.0,48.0,29.86,SW,221,0.0,0.0,77,0.00,,,0.00,meteohub,2013-04-10 09:38:00,
2013-04-10 05:43:00,54.9,48.2,29.86,SW,221,0.0,0.0,78,0.00,,,0.00,meteohub,2013-04-10 09:43:00,
2013-04-10 05:48:00,54.7,48.0,29.86,SW,221,0.0,0.0,78,0.00,,,0.00,meteohub,2013-04-10 09:48:00,
2013-04-10 05:53:00,54.5,48.2,29.87,SW,221,0.0,0.0,79,0.00,,,0.00,meteohub,2013-04-10 09:53:00,
2013-04-10 05:58:00,54.3,48.0,29.88,SW,221,0.0,0.0,79,0.00,,,0.00,meteohub,2013-04-10 09:58:00,
2013-04-10 06:03:00,54.3,48.2,29.88,SW,221,0.0,0.0,80,0.00,,,0.00,meteohub,2013-04-10 10:03:00,
2013-04-10 06:08:00,54.1,48.0,29.89,SW,221,0.0,0.0,80,0.00,,,0.00,meteohub,2013-04-10 10:08:00,
2013-04-10 06:13:00,53.8,48.0,29.88,SW,221,0.0,0.0,81,0.00,,,0.00,meteohub,2013-04-10 10:13:00,
2013-04-10 06:18:00,53.8,48.0,29.88,SW,221,0.0,0.0,81,0.00,,,0.00,meteohub,2013-04-10 10:18:00,
2013-04-10 06:23:00,53.4,47.7,29.88,SW,221,0.0,0.0,81,0.00,,,0.00,meteohub,2013-04-10 10:23:00,
2013-04-10 06:28:00,53.2,47.5,29.89,SW,221,0.0,0.0,81,0.00,,,0.00,meteohub,2013-04-10 10:28:00,
2013-04-10 06:33:00,53.2,47.8,29.88,SE,135,0.0,0.0,82,0.00,,,0.00,meteohub,2013-04-10 10:33:00,
2013-04-10 06:38:00,53.1,47.7,29.89,SE,135,0.0,0.0,82,0.00,,,0.00,meteohub,2013-04-10 10:38:00,
2013-04-10 06:43:00,52.9,47.5,29.89,SE,135,0.0,0.0,82,0.00,,,0.00,meteohub,2013-04-10 10:43:00,
2013-04-10 06:48:00,52.7,47.3,29.90,SE,135,0.0,0.0,82,0.00,,,0.00,meteohub,2013-04-10 10:48:00,
2013-04-10 06:53:00,52.5,47.1,29.90,SE,135,0.0,0.0,82,0.00,,,0.00,meteohub,2013-04-10 10:53:00,
2013-04-10 06:58:00,52.3,46.9,29.89,SE,131,0.0,0.0,82,0.00,,,0.00,meteohub,2013-04-10 10:58:00,
2013-04-10 07:03:00,52.2,46.8,29.89,SE,129,0.0,0.0,82,0.00,,,0.00,meteohub,2013-04-10 11:03:00,
2013-04-10 07:08:00,52.0,46.9,29.89,SE,127,0.0,0.0,83,0.00,,,0.00,meteohub,2013-04-10 11:08:00,
2013-04-10 07:13:00,52.0,46.9,29.89,SE,127,0.0,0.0,83,0.00,,,0.00,meteohub,2013-04-10 11:13:00,
2013-04-10 07:18:00,51.8,47.1,29.89,ESE,114,0.0,0.0,84,0.00,,,0.00,meteohub,2013-04-10 11:18:00,
2013-04-10 07:23:00,52.0,47.3,29.90,East,83,0.0,1.0,84,0.00,,,0.00,meteohub,2013-04-10 11:23:00,
2013-04-10 07:28:00,52.0,47.3,29.91,East,79,0.0,2.0,84,0.00,,,0.00,meteohub,2013-04-10 11:28:00,
2013-04-10 07:33:00,52.2,47.8,29.91,East,91,0.0,2.0,85,0.00,,,0.00,meteohub,2013-04-10 11:33:00,
2013-04-10 07:38:00,52.3,48.0,29.91,East,91,0.0,2.0,85,0.00,,,0.00,meteohub,2013-04-10 11:38:00,
2013-04-10 07:43:00,52.5,48.2,29.91,East,88,0.0,1.0,85,0.00,,,0.00,meteohub,2013-04-10 11:43:00,
2013-04-10 07:48:00,52.5,47.8,29.91,ENE,76,0.0,0.0,84,0.00,,,0.00,meteohub,2013-04-10 11:48:00,
2013-04-10 07:53:00,52.5,47.8,29.92,East,87,0.0,0.0,84,0.00,,,0.00,meteohub,2013-04-10 11:53:00,
2013-04-10 07:58:00,52.5,47.8,29.92,East,96,0.0,0.0,84,0.00,,,0.00,meteohub,2013-04-10 11:58:00,
2013-04-10 08:03:00,52.7,48.4,29.92,East,95,0.0,2.0,85,0.00,,,0.00,meteohub,2013-04-10 12:03:00,
2013-04-10 08:08:00,52.9,48.2,29.92,East,89,0.0,2.0,84,0.00,,,0.00,meteohub,2013-04-10 12:08:00,
2013-04-10 08:13:00,53.2,48.6,29.93,East,89,0.0,1.0,84,0.00,,,0.00,meteohub,2013-04-10 12:13:00,
2013-04-10 08:19:00,53.4,48.4,29.93,East,88,0.0,0.0,83,0.00,,,0.00,meteohub,2013-04-10 12:19:00,
2013-04-10 08:24:00,54.0,48.9,29.93,ENE,73,0.0,0.0,83,0.00,,,0.00,meteohub,2013-04-10 12:24:00,
2013-04-10 08:29:00,54.1,48.7,29.92,ENE,75,0.0,1.0,82,0.00,,,0.00,meteohub,2013-04-10 12:29:00,
2013-04-10 08:34:00,54.7,49.3,29.92,ENE,75,0.0,1.0,82,0.00,,,0.00,meteohub,2013-04-10 12:34:00,
2013-04-10 08:39:00,55.2,49.5,29.92,ENE,76,0.0,1.0,81,0.00,,,0.00,meteohub,2013-04-10 12:39:00,
2013-04-10 08:44:00,55.6,49.1,29.92,WSW,253,0.0,1.0,79,0.00,,,0.00,meteohub,2013-04-10 12:44:00,
2013-04-10 08:49:00,55.8,49.3,29.93,WSW,256,0.0,2.0,79,0.00,,,0.00,meteohub,2013-04-10 12:49:00,
2013-04-10 08:54:00,56.5,50.0,29.93,ENE,78,2.0,2.0,79,0.00,,,0.00,meteohub,2013-04-10 12:54:00,
2013-04-10 08:59:00,57.0,50.2,29.92,East,90,0.0,3.0,78,0.00,,,0.00,meteohub,2013-04-10 12:59:00,
2013-04-10 09:04:00,57.9,50.7,29.92,ENE,77,0.0,3.0,77,0.00,,,0.00,meteohub,2013-04-10 13:04:00,
2013-04-10 09:09:00,58.5,50.5,29.92,ENE,69,0.0,3.0,75,0.00,,,0.00,meteohub,2013-04-10 13:09:00,
2013-04-10 09:14:00,59.0,50.7,29.91,West,271,0.0,2.0,74,0.00,,,0.00,meteohub,2013-04-10 13:14:00,
2013-04-10 09:19:00,59.2,50.5,29.91,ENE,75,2.0,0.0,73,0.00,,,0.00,meteohub,2013-04-10 13:19:00,
2013-04-10 09:24:00,58.6,49.6,29.92,West,262,0.0,3.0,72,0.00,,,0.00,meteohub,2013-04-10 13:24:00,
2013-04-10 09:29:00,58.6,50.0,29.92,East,86,1.0,4.0,73,0.00,,,0.00,meteohub,2013-04-10 13:29:00,
2013-04-10 09:34:00,58.6,50.0,29.93,ENE,75,0.0,4.0,73,0.00,,,0.00,meteohub,2013-04-10 13:34:00,
2013-04-10 09:39:00,58.5,49.5,29.92,East,95,0.0,5.0,72,0.00,,,0.00,meteohub,2013-04-10 13:39:00,
2013-04-10 09:44:00,58.3,50.0,29.92,ENE,75,2.0,5.0,74,0.00,,,0.00,meteohub,2013-04-10 13:44:00,
2013-04-10 09:49:00,58.5,49.8,29.92,WSW,253,0.0,5.0,73,0.00,,,0.00,meteohub,2013-04-10 13:49:00,
2013-04-10 09:54:00,58.5,50.2,29.92,East,82,4.0,4.0,74,0.00,,,0.00,meteohub,2013-04-10 13:54:00,
2013-04-10 09:59:00,58.6,50.0,29.92,East,86,1.0,3.0,73,0.00,,,0.00,meteohub,2013-04-10 13:59:00,
2013-04-10 10:04:00,58.6,49.6,29.92,ENE,75,1.0,5.0,72,0.00,,,0.00,meteohub,2013-04-10 14:04:00,
2013-04-10 10:09:00,58.5,49.8,29.92,East,86,3.0,5.0,73,0.00,,,0.00,meteohub,2013-04-10 14:09:00,
2013-04-10 10:14:00,58.3,49.6,29.92,East,82,0.0,4.0,73,0.00,,,0.00,meteohub,2013-04-10 14:14:00,
2013-04-10 10:19:00,58.5,49.8,29.92,East,82,0.0,5.0,73,0.00,,,0.00,meteohub,2013-04-10 14:19:00,
2013-04-10 10:24:00,58.6,50.0,29.92,East,98,2.0,5.0,73,0.00,,,0.00,meteohub,2013-04-10 14:24:00,
2013-04-10 10:29:00,59.0,50.0,29.91,North,359,0.0,4.0,72,0.00,,,0.00,meteohub,2013-04-10 14:29:00,
2013-04-10 10:34:00,59.7,51.1,29.92,ENE,74,0.0,4.0,73,0.00,,,0.00,meteohub,2013-04-10 14:34:00,
2013-04-10 10:39:00,59.7,50.4,29.92,East,101,1.0,4.0,71,0.00,,,0.00,meteohub,2013-04-10 14:39:00,
2013-04-10 10:44:00,60.1,51.1,29.92,ENE,77,1.0,5.0,72,0.00,,,0.00,meteohub,2013-04-10 14:44:00,
2013-04-10 10:49:00,60.3,50.0,29.92,East,96,0.0,5.0,69,0.00,,,0.00,meteohub,2013-04-10 14:49:00,
2013-04-10 10:54:00,60.3,50.4,29.92,East,87,0.0,5.0,70,0.00,,,0.00,meteohub,2013-04-10 14:54:00,
2013-04-10 10:59:00,60.3,50.4,29.92,East,86,0.0,5.0,70,0.00,,,0.00,meteohub,2013-04-10 14:59:00,
2013-04-10 11:04:00,61.0,52.3,29.92,ENE,71,2.0,4.0,73,0.00,,,0.00,meteohub,2013-04-10 15:04:00,
2013-04-10 11:09:00,61.2,50.9,29.92,ESE,110,0.0,4.0,69,0.00,,,0.00,meteohub,2013-04-10 15:09:00,
2013-04-10 11:14:00,61.5,50.9,29.92,East,81,1.0,4.0,68,0.00,,,0.00,meteohub,2013-04-10 15:14:00,
2013-04-10 11:19:00,61.3,51.1,29.92,East,86,0.0,4.0,69,0.00,,,0.00,meteohub,2013-04-10 15:19:00,
2013-04-10 11:24:00,61.3,51.1,29.92,East,86,1.0,4.0,69,0.00,,,0.00,meteohub,2013-04-10 15:24:00,
2013-04-10 11:29:00,61.5,51.3,29.92,ENE,77,0.0,4.0,69,0.00,,,0.00,meteohub,2013-04-10 15:29:00,
2013-04-10 11:34:00,62.1,51.8,29.92,East,82,0.0,3.0,69,0.00,,,0.00,meteohub,2013-04-10 15:34:00,
2013-04-10 11:39:00,62.4,51.8,29.92,East,84,2.0,2.0,68,0.00,,,0.00,meteohub,2013-04-10 15:39:00,
2013-04-10 11:44:00,62.4,51.3,29.92,NE,54,0.0,2.0,67,0.00,,,0.00,meteohub,2013-04-10 15:44:00,
2013-04-10 11:49:00,63.0,51.8,29.92,NW,319,1.0,3.0,67,0.00,,,0.00,meteohub,2013-04-10 15:49:00,
2013-04-10 11:54:00,63.5,51.4,29.92,ESE,105,0.0,3.0,65,0.00,,,0.00,meteohub,2013-04-10 15:54:00,
2013-04-10 11:59:00,63.9,51.8,29.92,East,94,2.0,4.0,65,0.00,,,0.00,meteohub,2013-04-10 15:59:00,
2013-04-10 12:04:00,64.2,53.1,29.91,NW,315,0.0,4.0,67,0.00,,,0.00,meteohub,2013-04-10 16:04:00,
2013-04-10 12:09:00,65.1,52.7,29.92,East,90,1.0,4.0,64,0.00,,,0.00,meteohub,2013-04-10 16:09:00,
2013-04-10 12:14:00,65.5,53.1,29.91,East,90,0.0,4.0,64,0.00,,,0.00,meteohub,2013-04-10 16:14:00,
2013-04-10 12:19:00,65.7,52.7,29.91,East,79,0.0,4.0,63,0.00,,,0.00,meteohub,2013-04-10 16:19:00,
2013-04-10 12:24:00,66.0,53.1,29.91,NNW,340,0.0,5.0,63,0.00,,,0.00,meteohub,2013-04-10 16:24:00,
2013-04-10 12:29:00,66.9,55.6,29.91,SW,233,0.0,5.0,67,0.00,,,0.00,meteohub,2013-04-10 16:29:00,
2013-04-10 12:34:00,68.0,55.8,29.91,ENE,72,0.0,7.0,65,0.00,,,0.00,meteohub,2013-04-10 16:34:00,
2013-04-10 12:39:00,68.7,55.6,29.91,East,80,0.0,7.0,63,0.00,,,0.00,meteohub,2013-04-10 16:39:00,
2013-04-10 12:44:00,69.4,56.7,29.91,West,271,2.0,7.0,64,0.00,,,0.00,meteohub,2013-04-10 16:44:00,
2013-04-10 12:50:00,69.6,56.8,29.91,East,82,4.0,7.0,64,0.00,,,0.00,meteohub,2013-04-10 16:50:00,
2013-04-10 12:55:00,69.4,55.9,29.91,ENE,77,3.0,7.0,62,0.00,,,0.00,meteohub,2013-04-10 16:55:00,
2013-04-10 13:00:00,69.4,56.3,29.91,ENE,75,1.0,6.0,63,0.00,,,0.00,meteohub,2013-04-10 17:00:00,
2013-04-10 13:05:00,70.2,56.5,29.91,NNW,338,1.0,6.0,62,0.00,,,0.00,meteohub,2013-04-10 17:05:00,
2013-04-10 13:10:00,70.9,56.8,29.91,WNW,292,0.0,8.0,61,0.00,,,0.00,meteohub,2013-04-10 17:10:00,
2013-04-10 13:15:00,71.4,56.3,29.91,East,100,1.0,8.0,59,0.00,,,0.00,meteohub,2013-04-10 17:15:00,
2013-04-10 13:20:00,70.9,54.9,29.91,ENE,75,0.0,8.0,57,0.00,,,0.00,meteohub,2013-04-10 17:20:00,
2013-04-10 13:25:00,70.7,56.7,29.91,NW,318,1.0,6.0,61,0.00,,,0.00,meteohub,2013-04-10 17:25:00,
2013-04-10 13:30:00,71.1,55.6,29.90,East,91,1.0,6.0,58,0.00,,,0.00,meteohub,2013-04-10 17:30:00,
2013-04-10 13:35:00,70.5,55.6,29.90,East,87,0.0,4.0,59,0.00,,,0.00,meteohub,2013-04-10 17:35:00,
2013-04-10 13:40:00,70.3,55.4,29.90,NW,324,0.0,5.0,59,0.00,,,0.00,meteohub,2013-04-10 17:40:00,
2013-04-10 13:45:00,70.5,54.5,29.90,East,85,2.0,5.0,57,0.00,,,0.00,meteohub,2013-04-10 17:45:00,
2013-04-10 13:50:00,70.5,55.0,29.90,East,79,2.0,6.0,58,0.00,,,0.00,meteohub,2013-04-10 17:50:00,
2013-04-10 13:55:00,69.6,53.8,29.90,East,79,3.0,6.0,57,0.00,,,0.00,meteohub,2013-04-10 17:55:00,
2013-04-10 14:00:00,68.7,53.8,29.89,ENE,58,2.0,6.0,59,0.00,,,0.00,meteohub,2013-04-10 18:00:00,
2013-04-10 14:05:00,68.9,54.5,29.89,NNE,33,1.0,6.0,60,0.00,,,0.00,meteohub,2013-04-10 18:05:00,
2013-04-10 14:10:00,69.4,54.5,29.89,ENE,72,0.0,6.0,59,0.00,,,0.00,meteohub,2013-04-10 18:10:00,
2013-04-10 14:15:00,69.3,54.3,29.89,ENE,70,3.0,6.0,59,0.00,,,0.00,meteohub,2013-04-10 18:15:00,
2013-04-10 14:20:00,68.7,54.3,29.90,East,91,2.0,6.0,60,0.00,,,0.00,meteohub,2013-04-10 18:20:00,
2013-04-10 14:25:00,69.1,55.0,29.90,ENE,71,1.0,4.0,61,0.00,,,0.00,meteohub,2013-04-10 18:25:00,
2013-04-10 14:30:00,68.5,53.6,29.90,East,83,0.0,4.0,59,0.00,,,0.00,meteohub,2013-04-10 18:30:00,
2013-04-10 14:35:00,68.4,54.0,29.90,East,89,2.0,3.0,60,0.00,,,0.00,meteohub,2013-04-10 18:35:00,
2013-04-10 14:40:00,67.8,54.0,29.89,East,82,1.0,4.0,61,0.00,,,0.00,meteohub,2013-04-10 18:40:00,
2013-04-10 14:45:00,67.5,54.0,29.89,WNW,297,0.0,6.0,62,0.00,,,0.00,meteohub,2013-04-10 18:45:00,
2013-04-10 14:50:00,67.6,54.1,29.90,East,86,2.0,7.0,62,0.00,,,0.00,meteohub,2013-04-10 18:50:00,
2013-04-10 14:55:00,67.6,54.1,29.90,East,85,3.0,7.0,62,0.00,,,0.00,meteohub,2013-04-10 18:55:00,
2013-04-10 15:00:00,67.3,53.8,29.90,WNW,285,1.0,7.0,62,0.00,,,0.00,meteohub,2013-04-10 19:00:00,
2013-04-10 15:05:00,67.1,53.2,29.89,East,101,0.0,6.0,61,0.00,,,0.00,meteohub,2013-04-10 19:05:00,
2013-04-10 15:10:00,66.4,53.4,29.88,ESE,105,0.0,6.0,63,0.00,,,0.00,meteohub,2013-04-10 19:10:00,
2013-04-10 15:15:00,66.6,54.0,29.88,ENE,57,0.0,6.0,64,0.00,,,0.00,meteohub,2013-04-10 19:15:00,
2013-04-10 15:20:00,66.6,53.6,29.88,ENE,66,2.0,6.0,63,0.00,,,0.00,meteohub,2013-04-10 19:20:00,
2013-04-10 15:25:00,66.6,54.9,29.88,NW,308,0.0,5.0,66,0.00,,,0.00,meteohub,2013-04-10 19:25:00,
2013-04-10 15:30:00,67.3,54.7,29.88,SSW,207,0.0,5.0,64,0.00,,,0.00,meteohub,2013-04-10 19:30:00,
2013-04-10 15:35:00,67.1,54.5,29.88,NW,326,0.0,6.0,64,0.00,,,0.00,meteohub,2013-04-10 19:35:00,
2013-04-10 15:40:00,67.5,55.2,29.87,East,82,1.0,6.0,65,0.00,,,0.00,meteohub,2013-04-10 19:40:00,
2013-04-10 15:45:00,68.4,55.2,29.86,East,93,1.0,6.0,63,0.00,,,0.00,meteohub,2013-04-10 19:45:00,
2013-04-10 15:50:00,68.5,55.0,29.85,East,79,1.0,5.0,62,0.00,,,0.00,meteohub,2013-04-10 19:50:00,
2013-04-10 15:55:00,68.4,55.2,29.85,NW,308,2.0,4.0,63,0.00,,,0.00,meteohub,2013-04-10 19:55:00,
2013-04-10 16:00:00,67.8,54.7,29.85,NNE,18,1.0,4.0,63,0.00,,,0.00,meteohub,2013-04-10 20:00:00,
2013-04-10 16:06:00,67.5,54.5,29.85,NE,53,2.0,4.0,63,0.00,,,0.00,meteohub,2013-04-10 20:06:00,
2013-04-10 16:11:00,66.9,54.3,29.85,East,79,2.0,4.0,64,0.00,,,0.00,meteohub,2013-04-10 20:11:00,
2013-04-10 16:16:00,67.1,54.9,29.86,East,85,1.0,4.0,65,0.00,,,0.00,meteohub,2013-04-10 20:16:00,
2013-04-10 16:21:00,67.1,54.9,29.86,NW,312,1.0,4.0,65,0.00,,,0.00,meteohub,2013-04-10 20:21:00,
2013-04-10 16:26:00,66.9,54.9,29.86,East,81,1.0,5.0,65,0.00,,,0.00,meteohub,2013-04-10 20:26:00,
2013-04-10 16:31:00,67.5,55.8,29.85,East,94,0.0,5.0,66,0.00,,,0.00,meteohub,2013-04-10 20:31:00,
2013-04-10 16:36:00,68.0,55.4,29.86,ESE,108,0.0,5.0,64,0.00,,,0.00,meteohub,2013-04-10 20:36:00,
2013-04-10 16:41:00,68.2,54.7,29.86,East,91,3.0,3.0,62,0.00,,,0.00,meteohub,2013-04-10 20:41:00,
2013-04-10 16:47:00,67.8,54.7,29.84,East,81,1.0,5.0,63,0.00,,,0.00,meteohub,2013-04-10 20:47:00,
2013-04-10 16:52:00,67.6,54.7,29.84,East,84,1.0,5.0,63,0.00,,,0.00,meteohub,2013-04-10 20:52:00,
2013-04-10 16:57:00,67.3,55.0,29.84,WSW,252,1.0,5.0,65,0.00,,,0.00,meteohub,2013-04-10 20:57:00,
2013-04-10 17:02:00,67.3,54.7,29.84,ENE,72,0.0,4.0,64,0.00,,,0.00,meteohub,2013-04-10 21:02:00,
2013-04-10 17:07:00,67.1,54.5,29.83,East,82,1.0,5.0,64,0.00,,,0.00,meteohub,2013-04-10 21:07:00,
2013-04-10 17:12:00,67.3,55.0,29.83,NNE,18,0.0,5.0,65,0.00,,,0.00,meteohub,2013-04-10 21:12:00,
2013-04-10 17:17:00,67.5,54.9,29.83,ENE,72,0.0,4.0,64,0.00,,,0.00,meteohub,2013-04-10 21:17:00,
2013-04-10 17:21:00,67.1,54.1,29.83,East,80,1.0,4.0,63,0.00,,,0.00,meteohub,2013-04-10 21:21:00,
2013-04-10 17:26:00,66.7,54.1,29.82,ENE,76,1.0,5.0,64,0.00,,,0.00,meteohub,2013-04-10 21:26:00,
2013-04-10 17:32:00,66.4,53.4,29.81,ESE,111,2.0,5.0,63,0.00,,,0.00,meteohub,2013-04-10 21:32:00,
2013-04-10 17:37:00,65.5,52.5,29.82,West,266,3.0,5.0,63,0.00,,,0.00,meteohub,2013-04-10 21:37:00,
2013-04-10 17:42:00,64.8,52.3,29.82,WNW,303,0.0,5.0,64,0.00,,,0.00,meteohub,2013-04-10 21:42:00,
2013-04-10 17:47:00,64.6,52.5,29.81,NE,53,0.0,5.0,65,0.00,,,0.00,meteohub,2013-04-10 21:47:00,
2013-04-10 17:52:00,64.2,52.2,29.82,WSW,245,1.0,4.0,65,0.00,,,0.00,meteohub,2013-04-10 21:52:00,
2013-04-10 17:57:00,63.9,52.3,29.83,West,267,0.0,3.0,66,0.00,,,0.00,meteohub,2013-04-10 21:57:00,
2013-04-10 18:02:00,63.7,52.2,29.83,West,260,3.0,3.0,66,0.00,,,0.00,meteohub,2013-04-10 22:02:00,
2013-04-10 18:07:00,63.1,51.6,29.83,WSW,257,1.0,4.0,66,0.00,,,0.00,meteohub,2013-04-10 22:07:00,
2013-04-10 18:12:00,63.0,51.8,29.84,WSW,249,2.0,4.0,67,0.00,,,0.00,meteohub,2013-04-10 22:12:00,
2013-04-10 18:17:00,62.6,51.4,29.83,East,94,0.0,6.0,67,0.00,,,0.00,meteohub,2013-04-10 22:17:00,
2013-04-10 18:22:00,62.4,51.8,29.83,ENE,77,1.0,6.0,68,0.00,,,0.00,meteohub,2013-04-10 22:22:00,
2013-04-10 18:27:00,62.1,51.4,29.82,ENE,75,1.0,4.0,68,0.00,,,0.00,meteohub,2013-04-10 22:27:00,
2013-04-10 18:32:00,61.5,51.3,29.82,WSW,257,0.0,5.0,69,0.00,,,0.00,meteohub,2013-04-10 22:32:00,
2013-04-10 18:37:00,61.2,50.9,29.82,East,81,2.0,5.0,69,0.00,,,0.00,meteohub,2013-04-10 22:37:00,
2013-04-10 18:42:00,60.4,50.5,29.83,WSW,246,2.0,5.0,70,0.00,,,0.00,meteohub,2013-04-10 22:42:00,
2013-04-10 18:47:00,60.1,50.7,29.82,West,269,0.0,5.0,71,0.00,,,0.00,meteohub,2013-04-10 22:47:00,
2013-04-10 18:52:00,59.5,50.5,29.82,West,276,4.0,5.0,72,0.00,,,0.00,meteohub,2013-04-10 22:52:00,
2013-04-10 18:57:00,59.2,50.5,29.83,WNW,303,4.0,7.0,73,0.00,,,0.00,meteohub,2013-04-10 22:57:00,
2013-04-10 19:02:00,59.0,50.4,29.85,WSW,246,5.0,7.0,73,0.00,,,0.00,meteohub,2013-04-10 23:02:00,
2013-04-10 19:07:00,59.5,51.6,29.96,WNW,290,0.0,7.0,75,0.00,,,0.00,meteohub,2013-04-10 23:07:00,
2013-04-10 19:12:00,59.2,53.4,29.95,West,263,0.0,11.0,81,0.08,,,0.08,meteohub,2013-04-10 23:12:00,
2013-04-10 19:17:00,58.5,54.0,29.92,East,79,3.0,11.0,85,0.19,,,0.19,meteohub,2013-04-10 23:17:00,
2013-04-10 19:22:00,57.6,54.0,29.89,East,82,1.0,5.0,88,0.25,,,0.25,meteohub,2013-04-10 23:22:00,
2013-04-10 19:27:00,57.0,54.1,29.88,WSW,253,0.0,3.0,90,0.31,,,0.31,meteohub,2013-04-10 23:27:00,
2013-04-10 19:32:00,56.7,54.1,29.88,WSW,257,0.0,3.0,91,0.34,,,0.34,meteohub,2013-04-10 23:32:00,
2013-04-10 19:37:00,56.5,54.1,29.88,WSW,257,0.0,3.0,92,0.34,,,0.34,meteohub,2013-04-10 23:37:00,
2013-04-10 19:42:00,56.7,54.7,29.86,WSW,257,0.0,2.0,93,0.35,,,0.35,meteohub,2013-04-10 23:42:00,
2013-04-10 19:47:00,56.5,54.5,29.87,WSW,257,0.0,2.0,93,0.36,,,0.36,meteohub,2013-04-10 23:47:00,
2013-04-10 19:52:00,56.5,54.5,29.85,NNE,32,0.0,0.0,93,0.38,,,0.38,meteohub,2013-04-10 23:52:00,
2013-04-10 19:57:00,56.5,54.5,29.84,East,80,1.0,0.0,93,0.42,,,0.42,meteohub,2013-04-10 23:57:00,
2013-04-10 20:02:00,56.5,54.5,29.81,ENE,77,0.0,2.0,93,0.43,,,0.43,meteohub,2013-04-11 00:02:00,
2013-04-10 20:07:00,56.1,54.1,29.81,ENE,72,0.0,2.0,93,0.45,,,0.45,meteohub,2013-04-11 00:07:00,
2013-04-10 20:12:00,55.9,54.3,29.81,SW,217,0.0,4.0,94,0.35,,,0.47,meteohub,2013-04-11 00:12:00,
2013-04-10 20:17:00,55.8,54.1,29.78,ENE,71,0.0,4.0,94,0.26,,,0.47,meteohub,2013-04-11 00:17:00,
2013-04-10 20:22:00,55.6,54.0,29.78,ENE,67,0.0,4.0,94,0.18,,,0.47,meteohub,2013-04-11 00:22:00,
2013-04-10 20:27:00,55.6,54.0,29.79,NW,308,0.0,1.0,94,0.15,,,0.47,meteohub,2013-04-11 00:27:00,
2013-04-10 20:32:00,55.6,54.0,29.80,East,96,0.0,1.0,94,0.13,,,0.47,meteohub,2013-04-11 00:32:00,
2013-04-10 20:38:00,55.4,53.8,29.80,East,96,0.0,0.0,94,0.12,,,0.47,meteohub,2013-04-11 00:38:00,
2013-04-10 20:43:00,55.4,54.0,29.81,East,96,0.0,0.0,95,0.12,,,0.47,meteohub,2013-04-11 00:43:00,
2013-04-10 20:48:00,55.6,54.1,29.81,East,96,0.0,0.0,95,0.10,,,0.47,meteohub,2013-04-11 00:48:00,
2013-04-10 20:53:00,55.6,54.1,29.81,East,96,0.0,0.0,95,0.08,,,0.47,meteohub,2013-04-11 00:53:00,
2013-04-10 20:58:00,55.6,54.1,29.81,East,96,0.0,0.0,95,0.05,,,0.47,meteohub,2013-04-11 00:58:00,
2013-04-10 21:03:00,55.6,54.1,29.83,WSW,254,0.0,0.0,95,0.02,,,0.47,meteohub,2013-04-11 01:03:00,
2013-04-10 21:08:00,55.8,54.3,29.83,WSW,254,0.0,0.0,95,0.01,,,0.47,meteohub,2013-04-11 01:08:00,
2013-04-10 21:13:00,55.8,54.3,29.84,WSW,255,0.0,0.0,95,0.00,,,0.47,meteohub,2013-04-11 01:13:00,
2013-04-10 21:18:00,55.9,54.5,29.84,WSW,255,0.0,0.0,95,0.00,,,0.47,meteohub,2013-04-11 01:18:00,
2013-04-10 21:23:00,55.9,54.9,29.83,WSW,254,0.0,0.0,96,0.00,,,0.47,meteohub,2013-04-11 01:23:00,
2013-04-10 21:28:00,55.9,54.9,29.81,East,82,0.0,0.0,96,0.00,,,0.47,meteohub,2013-04-11 01:28:00,
2013-04-10 21:33:00,55.9,54.9,29.80,East,81,0.0,0.0,96,0.00,,,0.47,meteohub,2013-04-11 01:33:00,
2013-04-10 21:38:00,55.9,54.9,29.80,East,82,0.0,0.0,96,0.00,,,0.47,meteohub,2013-04-11 01:38:00,
2013-04-10 21:43:00,55.8,54.7,29.81,East,82,0.0,0.0,96,0.00,,,0.47,meteohub,2013-04-11 01:43:00,
2013-04-10 21:48:00,55.8,54.7,29.82,East,82,0.0,0.0,96,0.00,,,0.47,meteohub,2013-04-11 01:48:00,
2013-04-10 21:53:00,55.8,54.7,29.82,East,82,0.0,0.0,96,0.00,,,0.47,meteohub,2013-04-11 01:53:00,
2013-04-10 21:58:00,55.8,54.7,29.82,East,82,0.0,0.0,96,0.00,,,0.47,meteohub,2013-04-11 01:58:00,
2013-04-10 22:03:00,55.8,54.7,29.83,East,80,0.0,0.0,96,0.00,,,0.47,meteohub,2013-04-11 02:03:00,
2013-04-10 22:08:00,55.8,54.7,29.83,East,80,0.0,0.0,96,0.00,,,0.47,meteohub,2013-04-11 02:08:00,
2013-04-10 22:13:00,55.8,54.7,29.84,East,82,0.0,0.0,96,0.00,,,0.47,meteohub,2013-04-11 02:13:00,
2013-04-10 22:18:00,55.9,54.9,29.87,WSW,249,0.0,0.0,96,0.00,,,0.47,meteohub,2013-04-11 02:18:00,
2013-04-10 22:23:00,56.1,55.0,29.89,WNW,282,0.0,1.0,96,0.00,,,0.47,meteohub,2013-04-11 02:23:00,
2013-04-10 22:28:00,56.3,55.2,29.89,WNW,290,0.0,1.0,96,0.01,,,0.48,meteohub,2013-04-11 02:28:00,
2013-04-10 22:33:00,56.5,55.4,29.88,SE,134,0.0,2.0,96,0.04,,,0.51,meteohub,2013-04-11 02:33:00,
2013-04-10 22:38:00,56.5,55.4,29.88,WSW,243,0.0,2.0,96,0.13,,,0.60,meteohub,2013-04-11 02:38:00,
2013-04-10 22:43:00,56.7,55.8,29.88,WSW,243,0.0,2.0,97,0.14,,,0.61,meteohub,2013-04-11 02:43:00,
2013-04-10 22:48:00,56.7,55.6,29.87,WSW,243,0.0,2.0,96,0.17,,,0.64,meteohub,2013-04-11 02:48:00,
2013-04-10 22:53:00,56.7,55.6,29.85,WSW,243,0.0,0.0,96,0.18,,,0.65,meteohub,2013-04-11 02:53:00,
2013-04-10 22:58:00,56.7,55.8,29.84,WSW,243,0.0,1.0,97,0.19,,,0.66,meteohub,2013-04-11 02:58:00,
2013-04-10 23:03:00,56.7,55.8,29.85,WSW,243,0.0,1.0,97,0.20,,,0.67,meteohub,2013-04-11 03:03:00,
2013-04-10 23:08:00,56.7,55.8,29.85,WSW,243,0.0,1.0,97,0.20,,,0.67,meteohub,2013-04-11 03:08:00,
2013-04-10 23:13:00,56.7,55.8,29.85,WSW,243,0.0,0.0,97,0.20,,,0.67,meteohub,2013-04-11 03:13:00,
2013-04-10 23:18:00,56.7,55.8,29.86,WSW,243,0.0,0.0,97,0.20,,,0.67,meteohub,2013-04-11 03:18:00,
2013-04-10 23:23:00,56.7,55.8,29.86,WSW,243,0.0,0.0,97,0.21,,,0.68,meteohub,2013-04-11 03:23:00,
2013-04-10 23:28:00,56.7,55.8,29.86,WSW,243,0.0,0.0,97,0.18,,,0.68,meteohub,2013-04-11 03:28:00,
2013-04-10 23:33:00,56.8,55.9,29.86,WSW,246,0.0,0.0,97,0.13,,,0.68,meteohub,2013-04-11 03:33:00,
2013-04-10 23:38:00,56.8,55.9,29.85,WSW,246,0.0,1.0,97,0.08,,,0.68,meteohub,2013-04-11 03:38:00,
2013-04-10 23:43:00,56.8,55.9,29.83,WSW,245,0.0,1.0,97,0.05,,,0.68,meteohub,2013-04-11 03:43:00,
2013-04-10 23:48:00,56.8,55.9,29.83,WSW,245,0.0,1.0,97,0.04,,,0.68,meteohub,2013-04-11 03:48:00,
2013-04-10 23:53:00,56.8,55.9,29.83,West,281,0.0,0.0,97,0.02,,,0.68,meteohub,2013-04-11 03:53:00,
2013-04-10 23:58:00,56.8,55.9,29.82,West,281,0.0,0.0,97,0.01,,,0.68,meteohub,2013-04-11 03:58:00,